Regional Weather Roundup
Issued by NWS Kansas City/Pleasant Hill, MO

Home | Current Version | Previous Version | Graphics & Text | Print | Product List | Glossary Off
Versions: 1 2 3 4 5 6 7 8 9 10 11 12 13 14 15 16 17 18 19 20 21 22 23 24 25 26 27 28

000
ASUS43 KEAX 250010
RWREAX

WEATHER ROUNDUP FOR EASTERN KANSAS AND NORTHWEST MISSOURI
NATIONAL WEATHER SERVICE KANSAS CITY/PLEASANT HILL MO
700 PM CDT MON APR 24 2017

KSZ040-057-103>105-MOZ028-029-037-043-250100-
...KANSAS CITY METROPOLITAN AREA...

CITY           SKY/WX    TMP DP  RH WIND       PRES   REMARKS
K.C. INTL      MOSUNNY   72  37  28 S17G26    29.60S
6HR MIN TEMP:  72; 6HR MAX TEMP:  75;

K.C. DOWNTOWN  SUNNY     74  39  28 S14G31    29.60S
6HR MIN TEMP:  73; 6HR MAX TEMP:  77;

LEES SUMMIT    CLOUDY    73  37  27 S17       29.62F
6HR MIN TEMP:  70; 6HR MAX TEMP:  76;

OLATHE - IXD   SUNNY     71  43  36 S14G22    29.62S
6HR MIN TEMP:  71; 6HR MAX TEMP:  74;

OLATHE - OJC   SUNNY     70  41  34 S8        29.62S
6HR MIN TEMP:  69; 6HR MAX TEMP:  73;

LAWRENCE       SUNNY     71  44  37 SE14G21   29.60S

$$

MOZ001>008-011>017-020>025-030>033-038>040-044>046-053-054-250100-
...NORTHERN AND CENTRAL MISSOURI...

CITY           SKY/WX    TMP DP  RH WIND       PRES   REMARKS
ST. JOSEPH     CLOUDY    73  42  32 S18G29    29.58F
6HR MIN TEMP:  72; 6HR MAX TEMP:  76;

MOSBY          CLEAR     73  32  21 S10       29.61S
WHITEMAN AFB   MOSUNNY   71  37  29 S10       29.62F
6HR MIN TEMP:  71; 6HR MAX TEMP:  76;

CLINTON        SUNNY     72  37  28 S10       29.64S
SEDALIA        SUNNY     72  32  23 S13       29.65F
6HR MIN TEMP:  72; 6HR MAX TEMP:  79;

WARSAW         NOT AVBL
CHILLICOTHE      N/A     75  28  17 S12G23    29.61F
6HR MIN TEMP:  72; 6HR MAX TEMP:  77;

KIRKSVILLE     PTCLDY    73  34  23 S16G23    29.65S
6HR MIN TEMP:  72; 6HR MAX TEMP:  77;


$$

MOZ041-047>049-056>058-063>065-088>090-097-250100-
...EASTERN AND SOUTHERN MISSOURI...

CITY           SKY/WX    TMP DP  RH WIND       PRES   REMARKS
ST. LOUIS INTL MOCLDY    74  32  21 SE10      29.73F
6HR MIN TEMP:  73; 6HR MAX TEMP:  77;

SPIRIT OF STL  CLEAR     72  35  25 SE8       29.70F
COLUMBIA       CLEAR     74  31  20 SE13      29.66F
JEFFERSON CITY CLEAR     78  32  18 SE13      29.66F
ROLLA          CLEAR     70  37  29 S9        29.68F
OSAGE BEACH    CLEAR     75  35  23 S8        29.67F
SPRINGFIELD    SUNNY     72  34  24 S14       29.66F
BRANSON        PTCLDY    73  32  21 S10       29.70F
JOPLIN         SUNNY     73  40  30 S16       29.64S
WEST PLAINS    CLEAR     72  36  26 S8        29.73F

$$

IAZ060-094-KSZ022-034>040-054-083-096-NEZ052-066-093-250100-
...KANSAS...SOUTHEAST NEBRASKA AND IOWA...

CITY           SKY/WX    TMP DP  RH WIND       PRES   REMARKS
TOPEKA         SUNNY     72  46  39 S14G23    29.58S
6HR MIN TEMP:  71; 6HR MAX TEMP:  75;

MANHATTAN      CLOUDY    75  49  39 S18G26    29.52F
EMPORIA        SUNNY     70  47  43 S12       29.58S
CHANUTE        SUNNY     71  45  39 S15       29.61S
WICHITA        CLOUDY    71  51  49 S18       29.56F
OMAHA          CLOUDY    74  42  31 S17G26    29.51S
LINCOLN        CLOUDY    72  47  40 S13       29.50S
FALLS CITY     SUNNY     71  42  35 S20G30    29.55F
LAMONI         MOSUNNY   72  30  21 S18G28    29.59S
DES MOINES     PTSUNNY   73  30  20 S16       29.59F

$$





USA.gov is the U.S. government's official web portal to all federal, state and local government web resources and services.